contact:dominique.lefevre@mio.osupytheas.fr, maurice.libes@osupytheas.fr, didier.mallarino@osupytheas.fr
Project:EMSO http://www.emso-fr.org/EMSO-France
Depth: 2436.0 m
Title:EMSO Ligure Ouest : Data MII capteur CSTAR
DateTime,Latitude,Longitude,Instrument_Serial,Reference_Counts,Signal_Counts,Corrected_Signal_raw_counts,Calculated_Beam_c_inverse_meters,Internal_thermistor_counts
DateTime,Latitude,Longitude,Instrument_Serial,Reference_Counts,Signal_Counts,Corrected_Signal_raw_counts,Calculated_Beam_c_inverse_meters,Internal_thermistor_counts
2024-04-11T00:01:59,42.805,6.029,CST-1368DR,4098,4288,11087,01.370,553
2024-04-11T00:05:01,42.805,6.029,CST-1368DR,4098,4287,11085,01.371,553
2024-04-11T00:08:02,42.805,6.029,CST-1368DR,4098,4286,11083,01.372,553
2024-04-11T00:11:04,42.805,6.029,CST-1368DR,4098,4288,11088,01.370,553
2024-04-11T00:14:05,42.805,6.029,CST-1368DR,4098,4288,11087,01.370,553
2024-04-11T00:17:07,42.805,6.029,CST-1368DR,4098,4288,11086,01.370,553
2024-04-11T00:20:08,42.805,6.029,CST-1368DR,4098,4288,11087,01.370,553
2024-04-11T00:23:10,42.805,6.029,CST-1368DR,4098,4288,11088,01.370,553
2024-04-11T00:26:12,42.805,6.029,CST-1368DR,4098,4289,11091,01.369,553
2024-04-11T00:29:13,42.805,6.029,CST-1368DR,4098,4290,11093,01.368,553
2024-04-11T00:32:15,42.805,6.029,CST-1368DR,4098,4288,11088,01.370,553
2024-04-11T00:35:16,42.805,6.029,CST-1368DR,4098,4289,11089,01.369,553
2024-04-11T00:38:18,42.805,6.029,CST-1368DR,4098,4289,11089,01.369,553
2024-04-11T00:41:19,42.805,6.029,CST-1368DR,4098,4288,11088,01.370,553
2024-04-11T00:44:21,42.805,6.029,CST-1368DR,4098,4289,11090,01.369,553
2024-04-11T00:47:23,42.805,6.029,CST-1368DR,4098,4285,11079,01.373,553
2024-04-11T00:50:24,42.805,6.029,CST-1368DR,4098,4287,11085,01.371,553
2024-04-11T00:53:26,42.805,6.029,CST-1368DR,4098,4285,11080,01.373,553
2024-04-11T00:56:27,42.805,6.029,CST-1368DR,4098,4287,11085,01.371,553
2024-04-11T00:59:29,42.805,6.029,CST-1368DR,4098,4288,11088,01.370,553
2024-04-11T01:02:31,42.805,6.029,CST-1368DR,4098,4287,11085,01.371,553
2024-04-11T01:05:32,42.805,6.029,CST-1368DR,4098,4287,11084,01.371,553
2024-04-11T01:08:34,42.805,6.029,CST-1368DR,4098,4287,11085,01.371,553
2024-04-11T01:11:35,42.805,6.029,CST-1368DR,4098,4287,11086,01.370,553
2024-04-11T01:14:37,42.805,6.029,CST-1368DR,4098,4288,11086,01.370,553
2024-04-11T01:17:38,42.805,6.029,CST-1368DR,4098,4284,11078,01.373,553
2024-04-11T01:20:40,42.805,6.029,CST-1368DR,4098,4286,11083,01.372,553
2024-04-11T01:23:42,42.805,6.029,CST-1368DR,4098,4287,11085,01.371,553
2024-04-11T01:26:43,42.805,6.029,CST-1368DR,4098,4288,11087,01.370,553
2024-04-11T01:29:45,42.805,6.029,CST-1368DR,4098,4287,11084,01.371,553
2024-04-11T01:32:46,42.805,6.029,CST-1368DR,4098,4287,11084,01.371,553
2024-04-11T01:35:48,42.805,6.029,CST-1368DR,4098,4287,11084,01.371,553
2024-04-11T01:38:49,42.805,6.029,CST-1368DR,4098,4287,11084,01.371,553
2024-04-11T01:41:51,42.805,6.029,CST-1368DR,4098,4286,11082,01.372,553
2024-04-11T01:44:53,42.805,6.029,CST-1368DR,4098,4286,11083,01.372,553
2024-04-11T01:47:54,42.805,6.029,CST-1368DR,4098,4287,11086,01.370,553
2024-04-11T01:50:56,42.805,6.029,CST-1368DR,4098,4287,11086,01.370,553
2024-04-11T01:53:57,42.805,6.029,CST-1368DR,4098,4287,11084,01.371,553
2024-04-11T01:56:59,42.805,6.029,CST-1368DR,4098,4288,11086,01.370,553
2024-04-11T02:00:00,42.805,6.029,CST-1368DR,4098,4285,11080,01.373,553
2024-04-11T02:03:02,42.805,6.029,CST-1368DR,4098,4287,11086,01.370,553
2024-04-11T02:06:04,42.805,6.029,CST-1368DR,4098,4287,11086,01.370,553
2024-04-11T02:09:05,42.805,6.029,CST-1368DR,4098,4288,11087,01.370,553
2024-04-11T02:12:07,42.805,6.029,CST-1368DR,4098,4287,11085,01.371,553
2024-04-11T02:15:08,42.805,6.029,CST-1368DR,4098,4287,11084,01.371,553
2024-04-11T02:18:10,42.805,6.029,CST-1368DR,4098,4286,11082,01.372,553
2024-04-11T02:21:11,42.805,6.029,CST-1368DR,4098,4287,11084,01.371,553
2024-04-11T02:24:13,42.805,6.029,CST-1368DR,4098,4287,11085,01.371,553
2024-04-11T02:27:15,42.805,6.029,CST-1368DR,4098,4287,11084,01.371,553
2024-04-11T02:30:16,42.805,6.029,CST-1368DR,4098,4286,11082,01.372,553
2024-04-11T02:33:18,42.805,6.029,CST-1368DR,4098,4286,11082,01.372,553
2024-04-11T02:36:19,42.805,6.029,CST-1368DR,4098,4288,11087,01.370,553
2024-04-11T02:39:21,42.805,6.029,CST-1368DR,4098,4287,11085,01.371,553
2024-04-11T02:42:23,42.805,6.029,CST-1368DR,4098,4287,11084,01.371,553
2024-04-11T02:45:24,42.805,6.029,CST-1368DR,4098,4284,11077,01.374,553
2024-04-11T02:48:26,42.805,6.029,CST-1368DR,4098,4287,11086,01.370,553
2024-04-11T02:51:27,42.805,6.029,CST-1368DR,4098,4284,11078,01.373,553
2024-04-11T02:54:29,42.805,6.029,CST-1368DR,4098,4283,11075,01.374,553
2024-04-11T02:57:30,42.805,6.029,CST-1368DR,4098,4286,11082,01.372,553
2024-04-11T03:00:32,42.805,6.029,CST-1368DR,4098,4284,11076,01.374,553
2024-04-11T03:03:34,42.805,6.029,CST-1368DR,4098,4286,11082,01.372,553
2024-04-11T03:06:35,42.805,6.029,CST-1368DR,4098,4284,11077,01.374,553
2024-04-11T03:09:37,42.805,6.029,CST-1368DR,4098,4286,11082,01.372,553
2024-04-11T03:12:38,42.805,6.029,CST-1368DR,4098,4285,11080,01.373,553
2024-04-11T03:15:40,42.805,6.029,CST-1368DR,4098,4285,11079,01.373,553
2024-04-11T03:18:41,42.805,6.029,CST-1368DR,4098,4283,11073,01.375,553
2024-04-11T03:21:43,42.805,6.029,CST-1368DR,4098,4286,11082,01.372,553
2024-04-11T03:24:45,42.805,6.029,CST-1368DR,4098,4287,11086,01.370,553
2024-04-11T03:27:46,42.805,6.029,CST-1368DR,4098,4286,11082,01.372,553
2024-04-11T03:30:48,42.805,6.029,CST-1368DR,4098,4283,11075,01.374,553
2024-04-11T03:33:49,42.805,6.029,CST-1368DR,4098,4287,11084,01.371,553
2024-04-11T03:36:51,42.805,6.029,CST-1368DR,4098,4288,11087,01.370,553
2024-04-11T03:39:53,42.805,6.029,CST-1368DR,4098,4287,11084,01.371,553
2024-04-11T03:42:54,42.805,6.029,CST-1368DR,4098,4285,11080,01.373,553
2024-04-11T03:45:56,42.805,6.029,CST-1368DR,4098,4286,11082,01.372,553
2024-04-11T03:48:57,42.805,6.029,CST-1368DR,4098,4287,11084,01.371,553
2024-04-11T03:51:59,42.805,6.029,CST-1368DR,4098,4284,11077,01.374,553
2024-04-11T03:55:00,42.805,6.029,CST-1368DR,4098,4287,11085,01.371,553
2024-04-11T03:58:02,42.805,6.029,CST-1368DR,4098,4287,11085,01.371,553
2024-04-11T04:01:04,42.805,6.029,CST-1368DR,4098,4287,11085,01.371,553
2024-04-11T04:04:05,42.805,6.029,CST-1368DR,4098,4287,11085,01.371,553
2024-04-11T04:07:07,42.805,6.029,CST-1368DR,4098,4287,11084,01.371,553
2024-04-11T04:10:08,42.805,6.029,CST-1368DR,4098,4288,11086,01.370,553
2024-04-11T04:13:10,42.805,6.029,CST-1368DR,4098,4287,11086,01.370,553
2024-04-11T04:16:11,42.805,6.029,CST-1368DR,4098,4288,11087,01.370,553
2024-04-11T04:19:13,42.805,6.029,CST-1368DR,4098,4287,11085,01.371,553
2024-04-11T04:22:15,42.805,6.029,CST-1368DR,4098,4288,11087,01.370,553
2024-04-11T04:25:16,42.805,6.029,CST-1368DR,4098,4288,11087,01.370,553
2024-04-11T04:28:18,42.805,6.029,CST-1368DR,4098,4287,11085,01.371,553
2024-04-11T04:31:19,42.805,6.029,CST-1368DR,4098,4288,11087,01.370,553
2024-04-11T04:34:21,42.805,6.029,CST-1368DR,4098,4287,11086,01.370,553
2024-04-11T04:37:23,42.805,6.029,CST-1368DR,4098,4287,11084,01.371,553
2024-04-11T04:40:24,42.805,6.029,CST-1368DR,4098,4288,11087,01.370,553
2024-04-11T04:43:26,42.805,6.029,CST-1368DR,4098,4288,11086,01.370,553
2024-04-11T04:46:27,42.805,6.029,CST-1368DR,4098,4287,11086,01.370,553
2024-04-11T04:49:29,42.805,6.029,CST-1368DR,4098,4288,11088,01.370,553
2024-04-11T04:52:30,42.805,6.029,CST-1368DR,4098,4289,11089,01.369,553
2024-04-11T04:55:32,42.805,6.029,CST-1368DR,4098,4288,11087,01.370,553
2024-04-11T04:58:34,42.805,6.029,CST-1368DR,4098,4288,11088,01.370,553
2024-04-11T05:01:35,42.805,6.029,CST-1368DR,4098,4288,11088,01.370,553
2024-04-11T05:04:37,42.805,6.029,CST-1368DR,4098,4288,11088,01.370,553
2024-04-11T05:07:38,42.805,6.029,CST-1368DR,4098,4287,11085,01.371,553
2024-04-11T05:10:40,42.805,6.029,CST-1368DR,4098,4288,11088,01.370,553
2024-04-11T05:13:42,42.805,6.029,CST-1368DR,4098,4288,11088,01.370,553
2024-04-11T05:16:43,42.805,6.029,CST-1368DR,4098,4287,11086,01.370,553
2024-04-11T05:19:45,42.805,6.029,CST-1368DR,4098,4288,11086,01.370,553
2024-04-11T05:22:46,42.805,6.029,CST-1368DR,4098,4288,11088,01.370,553
2024-04-11T05:25:48,42.805,6.029,CST-1368DR,4098,4288,11087,01.370,553
2024-04-11T05:28:49,42.805,6.029,CST-1368DR,4098,4288,11088,01.370,553
2024-04-11T05:31:51,42.805,6.029,CST-1368DR,4098,4288,11086,01.370,553
2024-04-11T05:34:53,42.805,6.029,CST-1368DR,4098,4288,11087,01.370,553
2024-04-11T05:37:54,42.805,6.029,CST-1368DR,4098,4288,11088,01.370,553
2024-04-11T05:40:56,42.805,6.029,CST-1368DR,4098,4288,11088,01.370,553
2024-04-11T05:43:57,42.805,6.029,CST-1368DR,4098,4288,11087,01.370,553
2024-04-11T05:46:59,42.805,6.029,CST-1368DR,4098,4288,11088,01.370,553
2024-04-11T05:50:00,42.805,6.029,CST-1368DR,4098,4289,11090,01.369,553
2024-04-11T05:53:02,42.805,6.029,CST-1368DR,4098,4288,11086,01.370,553
2024-04-11T05:56:04,42.805,6.029,CST-1368DR,4098,4288,11088,01.370,553
2024-04-11T05:59:05,42.805,6.029,CST-1368DR,4098,4288,11088,01.370,553
2024-04-11T06:02:07,42.805,6.029,CST-1368DR,4098,4289,11089,01.369,553
2024-04-11T06:05:08,42.805,6.029,CST-1368DR,4098,4287,11086,01.370,553
2024-04-11T06:08:10,42.805,6.029,CST-1368DR,4098,4289,11089,01.369,553
2024-04-11T06:11:12,42.805,6.029,CST-1368DR,4098,4288,11087,01.370,553
2024-04-11T06:14:13,42.805,6.029,CST-1368DR,4098,4287,11084,01.371,553
2024-04-11T06:17:15,42.805,6.029,CST-1368DR,4098,4287,11086,01.370,553
2024-04-11T06:20:16,42.805,6.029,CST-1368DR,4098,4289,11089,01.369,553
2024-04-11T06:23:18,42.805,6.029,CST-1368DR,4098,4288,11088,01.370,553
2024-04-11T06:26:19,42.805,6.029,CST-1368DR,4098,4288,11086,01.370,553
2024-04-11T06:29:21,42.805,6.029,CST-1368DR,4098,4288,11088,01.370,553
2024-04-11T06:32:23,42.805,6.029,CST-1368DR,4098,4288,11086,01.370,553
2024-04-11T06:35:24,42.805,6.029,CST-1368DR,4098,4287,11086,01.370,553
2024-04-11T06:38:26,42.805,6.029,CST-1368DR,4098,4288,11086,01.370,553
2024-04-11T06:41:27,42.805,6.029,CST-1368DR,4098,4288,11086,01.370,553
2024-04-11T06:44:29,42.805,6.029,CST-1368DR,4098,4287,11084,01.371,553
2024-04-11T06:47:30,42.805,6.029,CST-1368DR,4098,4287,11085,01.371,553
2024-04-11T06:50:32,42.805,6.029,CST-1368DR,4098,4287,11085,01.371,553
2024-04-11T06:53:34,42.805,6.029,CST-1368DR,4098,4287,11084,01.371,553
2024-04-11T06:56:35,42.805,6.029,CST-1368DR,4098,4287,11084,01.371,553
2024-04-11T06:59:37,42.805,6.029,CST-1368DR,4098,4288,11087,01.370,553
2024-04-11T07:02:38,42.805,6.029,CST-1368DR,4098,4286,11082,01.372,553
2024-04-11T07:05:40,42.805,6.029,CST-1368DR,4098,4288,11086,01.370,553
2024-04-11T07:08:42,42.805,6.029,CST-1368DR,4098,4287,11084,01.371,553
2024-04-11T07:11:43,42.805,6.029,CST-1368DR,4098,4285,11080,01.373,553
2024-04-11T07:14:45,42.805,6.029,CST-1368DR,4098,4287,11085,01.371,553
2024-04-11T07:17:46,42.805,6.029,CST-1368DR,4098,4288,11086,01.370,553
2024-04-11T07:20:48,42.805,6.029,CST-1368DR,4098,4287,11084,01.371,553
2024-04-11T07:23:49,42.805,6.029,CST-1368DR,4097,4287,11088,01.370,553
2024-04-11T07:26:51,42.805,6.029,CST-1368DR,4097,4287,11088,01.370,553
2024-04-11T07:29:53,42.805,6.029,CST-1368DR,4098,4287,11085,01.371,553
2024-04-11T07:32:54,42.805,6.029,CST-1368DR,4098,4287,11084,01.371,553
2024-04-11T07:35:56,42.805,6.029,CST-1368DR,4098,4284,11077,01.374,553
2024-04-11T07:38:57,42.805,6.029,CST-1368DR,4098,4286,11083,01.372,553
2024-04-11T07:41:59,42.805,6.029,CST-1368DR,4098,4287,11085,01.371,553
2024-04-11T07:45:00,42.805,6.029,CST-1368DR,4098,4287,11084,01.371,553
2024-04-11T07:48:02,42.805,6.029,CST-1368DR,4098,4285,11080,01.373,553
2024-04-11T07:51:04,42.805,6.029,CST-1368DR,4098,4287,11084,01.371,553
2024-04-11T07:54:05,42.805,6.029,CST-1368DR,4098,4287,11084,01.371,553
2024-04-11T07:57:07,42.805,6.029,CST-1368DR,4098,4287,11086,01.370,553
2024-04-11T08:00:08,42.805,6.029,CST-1368DR,4098,4287,11085,01.371,553
2024-04-11T08:03:10,42.805,6.029,CST-1368DR,4098,4285,11079,01.373,553
2024-04-11T08:06:12,42.805,6.029,CST-1368DR,4098,4287,11086,01.370,553
2024-04-11T08:09:13,42.805,6.029,CST-1368DR,4098,4287,11084,01.371,553
2024-04-11T08:12:15,42.805,6.029,CST-1368DR,4098,4285,11080,01.373,553
2024-04-11T08:15:16,42.805,6.029,CST-1368DR,4098,4286,11082,01.372,553
2024-04-11T08:18:18,42.805,6.029,CST-1368DR,4097,4284,11079,01.373,553
2024-04-11T08:21:19,42.805,6.029,CST-1368DR,4098,4285,11079,01.373,553
2024-04-11T08:24:21,42.805,6.029,CST-1368DR,4098,4286,11082,01.372,553
2024-04-11T08:27:23,42.805,6.029,CST-1368DR,4098,4285,11079,01.373,553
2024-04-11T08:30:24,42.805,6.029,CST-1368DR,4098,4286,11083,01.372,553
2024-04-11T08:33:26,42.805,6.029,CST-1368DR,4098,4288,11088,01.370,553
2024-04-11T08:36:27,42.805,6.029,CST-1368DR,4098,4287,11085,01.371,553
2024-04-11T08:39:29,42.805,6.029,CST-1368DR,4098,4287,11084,01.371,553
2024-04-11T08:42:30,42.805,6.029,CST-1368DR,4098,4287,11084,01.371,553
2024-04-11T08:45:32,42.805,6.029,CST-1368DR,4098,4286,11082,01.372,553
2024-04-11T08:48:34,42.805,6.029,CST-1368DR,4098,4287,11085,01.371,553
2024-04-11T08:51:35,42.805,6.029,CST-1368DR,4098,4287,11084,01.371,553
2024-04-11T08:54:37,42.805,6.029,CST-1368DR,4098,4287,11084,01.371,553
2024-04-11T08:57:38,42.805,6.029,CST-1368DR,4098,4287,11085,01.371,553
2024-04-11T09:00:40,42.805,6.029,CST-1368DR,4097,4287,11086,01.370,553
2024-04-11T09:03:42,42.805,6.029,CST-1368DR,4097,4287,11087,01.370,553
2024-04-11T09:06:43,42.805,6.029,CST-1368DR,4098,4286,11083,01.372,553
2024-04-11T09:09:45,42.805,6.029,CST-1368DR,4097,4288,11089,01.369,553
2024-04-11T09:12:46,42.805,6.029,CST-1368DR,4097,4287,11086,01.370,553
2024-04-11T09:15:48,42.805,6.029,CST-1368DR,4098,4287,11084,01.371,553
2024-04-11T09:18:49,42.805,6.029,CST-1368DR,4097,4288,11089,01.369,553
2024-04-11T09:21:51,42.805,6.029,CST-1368DR,4098,4287,11086,01.370,553
2024-04-11T09:24:53,42.805,6.029,CST-1368DR,4097,4287,11086,01.370,553
2024-04-11T09:27:54,42.805,6.029,CST-1368DR,4097,4288,11090,01.369,553
2024-04-11T09:30:56,42.805,6.029,CST-1368DR,4097,4286,11086,01.370,553
2024-04-11T09:33:57,42.805,6.029,CST-1368DR,4098,4287,11084,01.371,553
2024-04-11T09:36:59,42.805,6.029,CST-1368DR,4098,4287,11086,01.370,553
2024-04-11T09:40:00,42.805,6.029,CST-1368DR,4097,4285,11083,01.372,553
2024-04-11T09:43:02,42.805,6.029,CST-1368DR,4098,4285,11080,01.373,553
2024-04-11T09:46:04,42.805,6.029,CST-1368DR,4097,4285,11082,01.372,553
2024-04-11T09:49:05,42.805,6.029,CST-1368DR,4097,4287,11088,01.370,553
2024-04-11T09:52:07,42.805,6.029,CST-1368DR,4097,4288,11090,01.369,553
2024-04-11T09:55:08,42.805,6.029,CST-1368DR,4097,4288,11090,01.369,553
2024-04-11T09:58:10,42.805,6.029,CST-1368DR,4097,4288,11091,01.369,553
2024-04-11T10:01:11,42.805,6.029,CST-1368DR,4097,4288,11089,01.369,553
2024-04-11T10:04:13,42.805,6.029,CST-1368DR,4097,4287,11088,01.370,553
2024-04-11T10:07:15,42.805,6.029,CST-1368DR,4097,4288,11089,01.369,553
2024-04-11T10:10:16,42.805,6.029,CST-1368DR,4097,4289,11091,01.369,553
2024-04-11T10:13:18,42.805,6.029,CST-1368DR,4097,4287,11088,01.370,553
2024-04-11T10:16:19,42.805,6.029,CST-1368DR,4097,4289,11093,01.368,553
2024-04-11T10:19:21,42.805,6.029,CST-1368DR,4097,4289,11091,01.369,553
2024-04-11T10:22:23,42.805,6.029,CST-1368DR,4097,4288,11090,01.369,553
2024-04-11T10:25:24,42.805,6.029,CST-1368DR,4097,4288,11090,01.369,553
2024-04-11T10:28:26,42.805,6.029,CST-1368DR,4097,4288,11091,01.369,553
2024-04-11T10:31:27,42.805,6.029,CST-1368DR,4097,4289,11091,01.369,553
2024-04-11T10:34:29,42.805,6.029,CST-1368DR,4097,4288,11089,01.369,553
2024-04-11T10:37:30,42.805,6.029,CST-1368DR,4097,4288,11091,01.369,553
2024-04-11T10:40:32,42.805,6.029,CST-1368DR,4097,4289,11091,01.369,553
2024-04-11T10:43:34,42.805,6.029,CST-1368DR,4097,4288,11089,01.369,553
2024-04-11T10:46:35,42.805,6.029,CST-1368DR,4097,4289,11092,01.368,553
2024-04-11T10:49:37,42.805,6.029,CST-1368DR,4097,4289,11093,01.368,553
2024-04-11T10:52:38,42.805,6.029,CST-1368DR,4098,4289,11090,01.369,553
2024-04-11T10:55:40,42.805,6.029,CST-1368DR,4097,4288,11090,01.369,553
2024-04-11T10:58:41,42.805,6.029,CST-1368DR,4097,4289,11091,01.369,553
2024-04-11T11:01:43,42.805,6.029,CST-1368DR,4097,4288,11091,01.369,553
2024-04-11T11:04:45,42.805,6.029,CST-1368DR,4097,4288,11090,01.369,553
2024-04-11T11:07:46,42.805,6.029,CST-1368DR,4097,4288,11090,01.369,553
2024-04-11T11:10:48,42.805,6.029,CST-1368DR,4097,4288,11091,01.369,553
2024-04-11T11:13:49,42.805,6.029,CST-1368DR,4097,4288,11090,01.369,553
2024-04-11T11:16:51,42.805,6.029,CST-1368DR,4097,4287,11088,01.370,553
2024-04-11T11:19:53,42.805,6.029,CST-1368DR,4097,4289,11093,01.368,553
2024-04-11T11:22:54,42.805,6.029,CST-1368DR,4097,4289,11091,01.369,553
2024-04-11T11:25:56,42.805,6.029,CST-1368DR,4097,4289,11091,01.369,553
2024-04-11T11:28:57,42.805,6.029,CST-1368DR,4097,4283,11078,01.373,553
2024-04-11T11:31:59,42.805,6.029,CST-1368DR,4097,4288,11090,01.369,553
2024-04-11T11:35:00,42.805,6.029,CST-1368DR,4097,4287,11088,01.370,553
2024-04-11T11:38:02,42.805,6.029,CST-1368DR,4097,4289,11093,01.368,553
2024-04-11T11:41:04,42.805,6.029,CST-1368DR,4097,4288,11090,01.369,553
2024-04-11T11:44:05,42.805,6.029,CST-1368DR,4097,4288,11089,01.369,553
2024-04-11T11:47:07,42.805,6.029,CST-1368DR,4097,4290,11095,01.367,553
2024-04-11T11:50:08,42.805,6.029,CST-1368DR,4097,4289,11092,01.368,553
2024-04-11T11:53:10,42.805,6.029,CST-1368DR,4097,4289,11091,01.369,553
2024-04-11T11:56:11,42.805,6.029,CST-1368DR,4097,4288,11091,01.369,553
2024-04-11T11:59:13,42.805,6.029,CST-1368DR,4097,4290,11094,01.368,553
2024-04-11T12:02:15,42.805,6.029,CST-1368DR,4097,4289,11093,01.368,553
2024-04-11T12:05:16,42.805,6.029,CST-1368DR,4097,4288,11090,01.369,553
2024-04-11T12:08:18,42.805,6.029,CST-1368DR,4097,4287,11088,01.370,553
2024-04-11T12:11:19,42.805,6.029,CST-1368DR,4097,4288,11090,01.369,553
2024-04-11T12:14:21,42.805,6.029,CST-1368DR,4097,4288,11091,01.369,553
2024-04-11T12:17:23,42.805,6.029,CST-1368DR,4097,4286,11084,01.371,553
2024-04-11T12:20:24,42.805,6.029,CST-1368DR,4097,4287,11087,01.370,553
2024-04-11T12:23:26,42.805,6.029,CST-1368DR,4097,4287,11088,01.370,553
2024-04-11T12:26:27,42.805,6.029,CST-1368DR,4097,4288,11091,01.369,553
2024-04-11T12:29:29,42.805,6.029,CST-1368DR,4097,4287,11088,01.370,553
2024-04-11T12:32:30,42.805,6.029,CST-1368DR,4097,4288,11089,01.369,553
2024-04-11T12:35:32,42.805,6.029,CST-1368DR,4097,4288,11090,01.369,553
2024-04-11T12:38:34,42.805,6.029,CST-1368DR,4097,4287,11088,01.370,553
2024-04-11T12:41:35,42.805,6.029,CST-1368DR,4097,4287,11088,01.370,553
2024-04-11T12:44:37,42.805,6.029,CST-1368DR,4097,4287,11088,01.370,553
2024-04-11T12:47:38,42.805,6.029,CST-1368DR,4097,4288,11090,01.369,553
2024-04-11T12:50:40,42.805,6.029,CST-1368DR,4097,4287,11087,01.370,553
2024-04-11T12:53:41,42.805,6.029,CST-1368DR,4097,4286,11086,01.370,553
2024-04-11T12:56:43,42.805,6.029,CST-1368DR,4097,4288,11090,01.369,553
2024-04-11T12:59:45,42.805,6.029,CST-1368DR,4097,4288,11089,01.369,553
2024-04-11T13:02:46,42.805,6.029,CST-1368DR,4097,4288,11090,01.369,553
2024-04-11T13:05:48,42.805,6.029,CST-1368DR,4097,4287,11087,01.370,553
2024-04-11T13:08:49,42.805,6.029,CST-1368DR,4097,4288,11089,01.369,553
2024-04-11T13:11:51,42.805,6.029,CST-1368DR,4097,4287,11087,01.370,553
2024-04-11T13:14:53,42.805,6.029,CST-1368DR,4097,4287,11087,01.370,553
2024-04-11T13:17:54,42.805,6.029,CST-1368DR,4097,4288,11090,01.369,553
2024-04-11T13:20:56,42.805,6.029,CST-1368DR,4097,4289,11092,01.368,553
2024-04-11T13:23:57,42.805,6.029,CST-1368DR,4097,4287,11087,01.370,553
2024-04-11T13:26:59,42.805,6.029,CST-1368DR,4097,4288,11090,01.369,553
2024-04-11T13:30:00,42.805,6.029,CST-1368DR,4097,4287,11086,01.370,553
2024-04-11T13:33:02,42.805,6.029,CST-1368DR,4097,4287,11088,01.370,553
2024-04-11T13:36:04,42.805,6.029,CST-1368DR,4097,4287,11088,01.370,553
2024-04-11T13:39:05,42.805,6.029,CST-1368DR,4097,4285,11082,01.372,553
2024-04-11T13:42:07,42.805,6.029,CST-1368DR,4097,4286,11086,01.370,553
2024-04-11T13:45:08,42.805,6.029,CST-1368DR,4097,4287,11088,01.370,553
2024-04-11T13:48:10,42.805,6.029,CST-1368DR,4097,4285,11083,01.372,553
2024-04-11T13:51:11,42.805,6.029,CST-1368DR,4097,4285,11083,01.372,553
2024-04-11T13:54:13,42.805,6.029,CST-1368DR,4097,4287,11086,01.370,553
2024-04-11T13:57:15,42.805,6.029,CST-1368DR,4097,4287,11088,01.370,553
2024-04-11T14:00:16,42.805,6.029,CST-1368DR,4097,4287,11088,01.370,553
2024-04-11T14:03:18,42.805,6.029,CST-1368DR,4097,4288,11090,01.369,553
2024-04-11T14:06:19,42.805,6.029,CST-1368DR,4097,4288,11089,01.369,553
2024-04-11T14:09:21,42.805,6.029,CST-1368DR,4097,4287,11087,01.370,553
2024-04-11T14:12:23,42.805,6.029,CST-1368DR,4097,4288,11090,01.369,553
2024-04-11T14:15:24,42.805,6.029,CST-1368DR,4097,4288,11089,01.369,553
2024-04-11T14:18:26,42.805,6.029,CST-1368DR,4097,4288,11090,01.369,553
2024-04-11T14:21:27,42.805,6.029,CST-1368DR,4097,4288,11090,01.369,553
2024-04-11T14:24:29,42.805,6.029,CST-1368DR,4097,4288,11089,01.369,553
2024-04-11T14:27:30,42.805,6.029,CST-1368DR,4097,4289,11091,01.369,553
2024-04-11T14:30:32,42.805,6.029,CST-1368DR,4097,4284,11079,01.373,553
2024-04-11T14:33:34,42.805,6.029,CST-1368DR,4097,4290,11094,01.368,553
2024-04-11T14:36:35,42.805,6.029,CST-1368DR,4097,4289,11092,01.368,553
2024-04-11T14:39:37,42.805,6.029,CST-1368DR,4097,4288,11090,01.369,553
2024-04-11T14:42:38,42.805,6.029,CST-1368DR,4097,4289,11092,01.368,553
2024-04-11T14:45:40,42.805,6.029,CST-1368DR,4097,4289,11091,01.369,553
2024-04-11T14:48:41,42.805,6.029,CST-1368DR,4097,4289,11092,01.368,553
2024-04-11T14:51:43,42.805,6.029,CST-1368DR,4097,4288,11090,01.369,553
2024-04-11T14:54:45,42.805,6.029,CST-1368DR,4097,4290,11094,01.368,553
2024-04-11T14:57:46,42.805,6.029,CST-1368DR,4097,4288,11091,01.369,553
2024-04-11T15:00:48,42.805,6.029,CST-1368DR,4097,4288,11091,01.369,553
2024-04-11T15:03:49,42.805,6.029,CST-1368DR,4097,4288,11091,01.369,553
2024-04-11T15:06:51,42.805,6.029,CST-1368DR,4097,4287,11088,01.370,553
2024-04-11T15:09:53,42.805,6.029,CST-1368DR,4097,4288,11090,01.369,553
2024-04-11T15:12:54,42.805,6.029,CST-1368DR,4097,4288,11090,01.369,553
2024-04-11T15:15:56,42.805,6.029,CST-1368DR,4097,4289,11092,01.368,553
2024-04-11T15:18:57,42.805,6.029,CST-1368DR,4097,4288,11090,01.369,553
2024-04-11T15:21:59,42.805,6.029,CST-1368DR,4097,4290,11094,01.368,553
2024-04-11T15:25:00,42.805,6.029,CST-1368DR,4097,4288,11090,01.369,553
2024-04-11T15:28:02,42.805,6.029,CST-1368DR,4097,4288,11091,01.369,553
2024-04-11T15:31:04,42.805,6.029,CST-1368DR,4097,4289,11091,01.369,553
2024-04-11T15:34:05,42.805,6.029,CST-1368DR,4097,4289,11091,01.369,553
2024-04-11T15:37:07,42.805,6.029,CST-1368DR,4097,4288,11090,01.369,553
2024-04-11T15:40:08,42.805,6.029,CST-1368DR,4097,4289,11091,01.369,553
2024-04-11T15:43:10,42.805,6.029,CST-1368DR,4097,4288,11091,01.369,553
2024-04-11T15:46:11,42.805,6.029,CST-1368DR,4097,4288,11089,01.369,553
2024-04-11T15:49:13,42.805,6.029,CST-1368DR,4097,4288,11089,01.369,553
2024-04-11T15:52:15,42.805,6.029,CST-1368DR,4097,4288,11090,01.369,553
2024-04-11T15:55:16,42.805,6.029,CST-1368DR,4097,4288,11090,01.369,553
2024-04-11T15:58:18,42.805,6.029,CST-1368DR,4097,4288,11090,01.369,553
2024-04-11T16:01:19,42.805,6.029,CST-1368DR,4097,4289,11091,01.369,553
2024-04-11T16:04:21,42.805,6.029,CST-1368DR,4097,4289,11091,01.369,553
2024-04-11T16:07:23,42.805,6.029,CST-1368DR,4097,4288,11090,01.369,553
2024-04-11T16:10:24,42.805,6.029,CST-1368DR,4097,4288,11090,01.369,553
2024-04-11T16:13:26,42.805,6.029,CST-1368DR,4097,4288,11090,01.369,553
2024-04-11T16:16:27,42.805,6.029,CST-1368DR,4097,4288,11090,01.369,553
2024-04-11T16:19:29,42.805,6.029,CST-1368DR,4097,4288,11090,01.369,553
2024-04-11T16:22:30,42.805,6.029,CST-1368DR,4097,4290,11094,01.368,553
2024-04-11T16:25:32,42.805,6.029,CST-1368DR,4097,4288,11090,01.369,553
2024-04-11T16:28:34,42.805,6.029,CST-1368DR,4097,4290,11096,01.367,553
2024-04-11T16:31:35,42.805,6.029,CST-1368DR,4097,4288,11091,01.369,553
2024-04-11T16:34:37,42.805,6.029,CST-1368DR,4097,4289,11091,01.369,553
2024-04-11T16:37:38,42.805,6.029,CST-1368DR,4097,4289,11092,01.368,553